S52JK-13 Weather Reports


Display with metric or nautical units.
time (UTC)temp
F
wind
direction
speed
MPH
gust
MPH
rain 1hr
in
rain 24hr
in
rain mn
in
humidity
%
barometer
mb
20260903122631 79 0.0 0.0 0.00 0.00 0.00 37 933.5
20260903122131 80 0.0 0.0 0.00 0.00 0.00 38 933.5
20260903121631 79 0.0 0.0 0.00 0.00 0.00 37 933.6
20260903121131 79 0.0 0.0 0.00 0.00 0.00 37 933.7
20260903120631 79 0.0 0.0 0.00 0.00 0.00 39 933.6
20260903120131 80 0.0 0.0 0.00 0.00 0.00 40 933.6
20260903115631 78 0.0 0.0 0.00 0.00 0.00 43 933.6
20260903115132 77 0.0 0.0 0.00 0.00 0.00 42 933.7
20260903114631 78 0.0 0.0 0.00 0.00 0.00 42 933.7
20260903114131 78 0.0 0.0 0.00 0.00 0.00 41 933.7
20260903113631 78 0.0 0.0 0.00 0.00 0.00 40 933.7
20260903113131 79 0.0 0.0 0.00 0.00 0.00 40 933.7
20260903112631 79 0.0 0.0 0.00 0.00 0.00 42 933.8
20260903112131 79 0.0 0.0 0.00 0.00 0.00 40 933.8
20260903111631 78 0.0 0.0 0.00 0.00 0.00 43 933.9
20260903111131 77 0.0 0.0 0.00 0.00 0.00 42 933.9
20260903110631 78 0.0 0.0 0.00 0.00 0.00 41 934.1
20260903110131 77 0.0 0.0 0.00 0.00 0.00 43 934.2
20260903105631 77 0.0 0.0 0.00 0.00 0.00 43 934.2
20260903105131 77 0.0 0.0 0.00 0.00 0.00 43 934.1
20260903104632 77 0.0 0.0 0.00 0.00 0.00 43 934.2
20260903104131 77 0.0 0.0 0.00 0.00 0.00 45 934.1
20260903103631 77 0.0 0.0 0.00 0.00 0.00 44 934.2
20260903103132 77 0.0 0.0 0.00 0.00 0.00 46 934.2
20260903102631 76 0.0 0.0 0.00 0.00 0.00 41 934.2
20260903102131 77 0.0 0.0 0.00 0.00 0.00 41 934.4
20260903101632 76 0.0 0.0 0.00 0.00 0.00 46 934.4
20260903101131 76 0.0 0.0 0.00 0.00 0.00 50 934.4
20260903100631 76 0.0 0.0 0.00 0.00 0.00 51 934.5
20260903100131 75 0.0 0.0 0.00 0.00 0.00 48 934.4
20260903095632 75 0.0 0.0 0.00 0.00 0.00 49 934.6
20260903095131 74 0.0 0.0 0.00 0.00 0.00 45 934.7
20260903094631 75 0.0 0.0 0.00 0.00 0.00 53 934.7
20260903094131 74 0.0 0.0 0.00 0.00 0.00 53 934.8
20260903093632 74 0.0 0.0 0.00 0.00 0.00 53 934.8
20260903093131 74 0.0 0.0 0.00 0.00 0.00 51 934.8
20260903092631 74 0.0 0.0 0.00 0.00 0.00 55 934.8
20260903092131 74 0.0 0.0 0.00 0.00 0.00 57 934.9
20260903091632 73 0.0 0.0 0.00 0.00 0.00 55 934.8
20260903091132 73 0.0 0.0 0.00 0.00 0.00 58 934.9
20260903090632 73 0.0 0.0 0.00 0.00 0.00 56 934.9
20260903090131 73 0.0 0.0 0.00 0.00 0.00 55 934.9
20260903085632 73 0.0 0.0 0.00 0.00 0.00 59 934.9
20260903085132 72 0.0 0.0 0.00 0.00 0.00 59 934.9
20260903084631 72 0.0 0.0 0.00 0.00 0.00 59 934.8
20260903084132 72 0.0 0.0 0.00 0.00 0.00 58 934.8
20260903083631 71 0.0 0.0 0.00 0.00 0.00 59 934.9
20260903083131 72 0.0 0.0 0.00 0.00 0.00 58 934.8
20260903082632 71 0.0 0.0 0.00 0.00 0.00 62 934.9
20260903082132 71 0.0 0.0 0.00 0.00 0.00 66 934.9
20260903081632 71 0.0 0.0 0.00 0.00 0.00 64 934.9
20260903081132 71 0.0 0.0 0.00 0.00 0.00 66 934.9
20260903080632 70 0.0 0.0 0.00 0.00 0.00 66 934.9
20260903080131 70 0.0 0.0 0.00 0.00 0.00 68 934.8
20260903075632 69 0.0 0.0 0.00 0.00 0.00 70 934.8
20260903075132 69 0.0 0.0 0.00 0.00 0.00 71 934.8
20260903074632 69 0.0 0.0 0.00 0.00 0.00 72 934.8
20260903074132 69 0.0 0.0 0.00 0.00 0.00 72 934.9
20260903073633 68 0.0 0.0 0.00 0.00 0.00 70 934.8
20260903073132 68 0.0 0.0 0.00 0.00 0.00 71 934.7
20260903072632 67 0.0 0.0 0.00 0.00 0.00 73 934.7
20260903072132 67 0.0 0.0 0.00 0.00 0.00 73 934.8
20260903071632 67 0.0 0.0 0.00 0.00 0.00 74 934.8
20260903071132 66 0.0 0.0 0.00 0.00 0.00 75 934.8
20260903070632 66 0.0 0.0 0.00 0.00 0.00 74 934.8
20260903070132 65 0.0 0.0 0.00 0.00 0.00 75 934.8
20260903065632 65 0.0 0.0 0.00 0.00 0.00 76 934.8
20260903065132 65 0.0 0.0 0.00 0.00 0.00 76 934.8
20260903064632 65 0.0 0.0 0.00 0.00 0.00 75 934.8
20260903064132 64 0.0 0.0 0.00 0.00 0.00 77 934.7
20260903063632 64 0.0 0.0 0.00 0.00 0.00 77 934.7
20260903063132 64 0.0 0.0 0.00 0.00 0.00 77 934.6
20260903062632 64 0.0 0.0 0.00 0.00 0.00 79 934.6
20260903062132 64 0.0 0.0 0.00 0.00 0.00 77 934.6
20260903061632 64 0.0 0.0 0.00 0.00 0.00 77 934.6
20260903061132 63 0.0 0.0 0.00 0.00 0.00 80 934.6
20260903060632 63 0.0 0.0 0.00 0.00 0.00 79 934.5
20260903060135 63 0.0 0.0 0.00 0.00 0.00 80 934.4
20260903055632 63 0.0 0.0 0.00 0.00 0.00 79 934.4
20260903055132 63 0.0 0.0 0.00 0.00 0.00 79 934.4
20260903054632 63 0.0 0.0 0.00 0.00 0.00 79 934.3
20260903054132 63 0.0 0.0 0.00 0.00 0.00 78 934.2
20260903053632 63 0.0 0.0 0.00 0.00 0.00 78 934.2
20260903053132 63 0.0 0.0 0.00 0.00 0.00 78 934.2
20260903052632 63 0.0 0.0 0.00 0.00 0.00 77 934.1
20260903052132 63 0.0 0.0 0.00 0.00 0.00 77 934.1
20260903051632 63 0.0 0.0 0.00 0.00 0.00 76 934.0
20260903051132 63 0.0 0.0 0.00 0.00 0.00 76 934.1
20260903050632 63 0.0 0.0 0.00 0.00 0.00 76 934.0
20260903050133 64 0.0 0.0 0.00 0.00 0.00 75 934.0
20260903045632 64 0.0 0.0 0.00 0.00 0.00 74 934.0
20260903045132 64 0.0 0.0 0.00 0.00 0.00 73 934.0
20260903044632 64 0.0 0.0 0.00 0.00 0.00 73 934.0
20260903044132 64 0.0 0.0 0.00 0.00 0.00 72 934.0
20260903043632 64 0.0 0.0 0.00 0.00 0.00 71 933.9
20260903043132 64 0.0 0.0 0.00 0.00 0.00 71 933.9
20260903042632 64 0.0 0.0 0.00 0.00 0.00 71 933.9
20260903042132 64 0.0 0.0 0.00 0.00 0.00 71 933.8
20260903041632 64 0.0 0.0 0.00 0.00 0.00 72 933.7
20260903041132 64 0.0 0.0 0.00 0.00 0.00 72 933.7
20260903040633 63 0.0 0.0 0.00 0.00 0.00 72 933.7
20260903040132 63 0.0 0.0 0.00 0.00 0.00 72 933.6
20260903035632 63 0.0 0.0 0.00 0.00 0.00 73 933.6
20260903035132 63 0.0 0.0 0.00 0.00 0.00 74 933.7
20260903034633 63 0.0 0.0 0.00 0.00 0.00 73 933.6
20260903034132 64 0.0 0.0 0.00 0.00 0.00 73 933.6
20260903033632 64 0.0 0.0 0.00 0.00 0.00 73 933.6
20260903033132 64 0.0 0.0 0.00 0.00 0.00 72 933.6
20260903032633 64 0.0 0.0 0.00 0.00 0.00 72 933.6
20260903032132 64 0.0 0.0 0.00 0.00 0.00 71 933.6
20260903031632 64 0.0 0.0 0.00 0.00 0.00 70 933.7
20260903031133 64 0.0 0.0 0.00 0.00 0.00 70 933.6
20260903030632 64 0.0 0.0 0.00 0.00 0.00 69 933.6
20260903030132 64 0.0 0.0 0.00 0.00 0.00 69 933.6
20260903025633 64 0.0 0.0 0.00 0.00 0.00 69 933.6
20260903025132 65 0.0 0.0 0.00 0.00 0.00 69 933.6
20260903024633 65 0.0 0.0 0.00 0.00 0.00 69 933.7
20260903024132 65 0.0 0.0 0.00 0.00 0.00 69 933.7
20260903023633 65 0.0 0.0 0.00 0.00 0.00 69 933.8
20260903023132 65 0.0 0.0 0.00 0.00 0.00 69 933.8
20260903022632 65 0.0 0.0 0.00 0.00 0.00 70 933.8
20260903022133 65 0.0 0.0 0.00 0.00 0.00 71 933.8
20260903021633 65 0.0 0.0 0.00 0.00 0.00 70 933.8
20260903021133 65 0.0 0.0 0.00 0.00 0.00 70 933.8
20260903020633 65 0.0 0.0 0.00 0.00 0.00 70 933.8
20260903020132 65 0.0 0.0 0.00 0.00 0.00 69 933.8
20260903015632 65 0.0 0.0 0.00 0.00 0.00 70 933.8
20260903015133 64 0.0 0.0 0.00 0.00 0.00 70 933.8
20260903014632 65 0.0 0.0 0.00 0.00 0.00 72 933.7
20260903014133 65 0.0 0.0 0.00 0.00 0.00 72 933.8
20260903013633 64 0.0 0.0 0.00 0.00 0.00 71 933.8
20260903013133 64 0.0 0.0 0.00 0.00 0.00 71 933.8
20260903012633 64 0.0 0.0 0.00 0.00 0.00 71 933.9
20260903012133 64 0.0 0.0 0.00 0.00 0.00 70 933.8
20260903011633 65 0.0 0.0 0.00 0.00 0.00 70 933.8
20260903011133 64 0.0 0.0 0.00 0.00 0.00 71 933.8
20260903010633 64 0.0 0.0 0.00 0.00 0.00 71 933.8
20260903010133 64 0.0 0.0 0.00 0.00 0.00 70 933.9
20260903005633 65 0.0 0.0 0.00 0.00 0.00 70 933.9
20260903005133 65 0.0 0.0 0.00 0.00 0.00 70 933.9
20260903004633 65 0.0 0.0 0.00 0.00 0.00 70 933.8
20260903004133 66 0.0 0.0 0.00 0.00 0.00 70 933.8
20260903003633 65 0.0 0.0 0.00 0.00 0.00 69 933.8
20260903003133 65 0.0 0.0 0.00 0.00 0.00 69 933.8
20260903002633 65 0.0 0.0 0.00 0.00 0.00 71 933.8
20260903002133 65 0.0 0.0 0.00 0.00 0.00 71 933.7
20260903001633 65 0.0 0.0 0.00 0.00 0.00 71 933.7
20260903001134 66 0.0 0.0 0.00 0.00 0.00 70 933.7
20260903000633 66 0.0 0.0 0.00 0.00 0.00 70 933.7
20260903000133 66 0.0 0.0 0.00 0.00 0.00 71 933.7
20260902235633 66 0.0 0.0 0.00 0.00 0.00 70 933.7
20260902235133 66 0.0 0.0 0.00 0.00 0.00 70 933.7
20260902234633 66 0.0 0.0 0.00 0.00 0.00 70 933.9
20260902234133 66 0.0 0.0 0.00 0.00 0.00 70 933.9
20260902233633 66 0.0 0.0 0.00 0.00 0.00 69 933.8
20260902233133 66 0.0 0.0 0.00 0.00 0.00 70 933.8
20260902232633 66 0.0 0.0 0.00 0.00 0.00 70 933.8
20260902232133 66 0.0 0.0 0.00 0.00 0.00 70 933.8
20260902231633 66 0.0 0.0 0.00 0.00 0.00 70 933.6
20260902231133 66 0.0 0.0 0.00 0.00 0.00 69 933.7
20260902230633 66 0.0 0.0 0.00 0.00 0.00 70 933.6
20260902230133 66 0.0 0.0 0.00 0.00 0.00 70 933.6
20260902225633 66 0.0 0.0 0.00 0.00 0.00 69 933.6
20260902225133 66 0.0 0.0 0.00 0.00 0.00 69 933.7
20260902224634 66 0.0 0.0 0.00 0.00 0.00 67 933.7
20260902224133 66 0.0 0.0 0.00 0.00 0.00 66 933.7
20260902223634 66 0.0 0.0 0.00 0.00 0.00 65 933.8
20260902223133 66 0.0 0.0 0.00 0.00 0.00 64 933.7
20260902222633 67 0.0 0.0 0.00 0.00 0.00 64 933.7
20260902222133 67 0.0 0.0 0.00 0.00 0.00 63 933.7
20260902221634 67 0.0 0.0 0.00 0.00 0.00 61 933.7
20260902221133 67 0.0 0.0 0.00 0.00 0.00 61 933.7
20260902220634 67 0.0 0.0 0.00 0.00 0.00 59 933.7
20260902220134 66 0.0 0.0 0.00 0.00 0.00 59 933.7
20260902215633 67 0.0 0.0 0.00 0.00 0.00 60 933.7
20260902215134 67 0.0 0.0 0.00 0.00 0.00 60 933.6
20260902214633 66 0.0 0.0 0.00 0.00 0.00 61 933.5
20260902214133 67 0.0 0.0 0.00 0.00 0.00 61 933.6
20260902213633 66 0.0 0.0 0.00 0.00 0.00 61 933.6
20260902213134 66 0.0 0.0 0.00 0.00 0.00 62 933.6
20260902212633 67 0.0 0.0 0.00 0.00 0.00 63 933.6
20260902212133 67 0.0 0.0 0.00 0.00 0.00 64 933.6
20260902211634 67 0.0 0.0 0.00 0.00 0.00 67 933.6
20260902211134 67 0.0 0.0 0.00 0.00 0.00 69 933.6
20260902210634 67 0.0 0.0 0.00 0.00 0.00 69 933.5
20260902210133 67 0.0 0.0 0.00 0.00 0.00 69 933.6
20260902205634 67 0.0 0.0 0.00 0.00 0.00 68 933.6
20260902205133 67 0.0 0.0 0.00 0.00 0.00 67 933.6
20260902204633 67 0.0 0.0 0.00 0.00 0.00 66 933.5
20260902204133 67 0.0 0.0 0.00 0.00 0.00 66 933.6
20260902203634 67 0.0 0.0 0.00 0.00 0.00 67 933.5
20260902203133 67 0.0 0.0 0.00 0.00 0.00 67 933.4
20260902202634 67 0.0 0.0 0.00 0.00 0.00 65 933.4
20260902202134 67 0.0 0.0 0.00 0.00 0.00 72 933.4
20260902201634 67 0.0 0.0 0.00 0.00 0.00 73 933.3
20260902201134 67 0.0 0.0 0.00 0.00 0.00 76 933.3
20260902200634 68 0.0 0.0 0.00 0.00 0.00 78 933.4
20260902200134 67 0.0 0.0 0.00 0.00 0.00 74 933.5
20260902195634 68 0.0 0.0 0.00 0.00 0.00 72 933.6
20260902195133 69 0.0 0.0 0.00 0.00 0.00 69 933.8
20260902194634 69 0.0 0.0 0.00 0.00 0.00 66 933.9
20260902194134 69 0.0 0.0 0.00 0.00 0.00 64 933.8
20260902193634 69 0.0 0.0 0.00 0.00 0.00 63 933.7
20260902193134 69 0.0 0.0 0.00 0.00 0.00 64 933.6
20260902192634 69 0.0 0.0 0.00 0.00 0.00 64 933.5
20260902192133 69 0.0 0.0 0.00 0.00 0.00 64 933.4
20260902191634 69 0.0 0.0 0.00 0.00 0.00 64 933.4
20260902191134 69 0.0 0.0 0.00 0.00 0.00 64 933.4
20260902190634 69 0.0 0.0 0.00 0.00 0.00 64 933.4
20260902190134 69 0.0 0.0 0.00 0.00 0.00 64 933.4
20260902185634 69 0.0 0.0 0.00 0.00 0.00 65 933.3
20260902185134 69 0.0 0.0 0.00 0.00 0.00 65 933.3
20260902184634 69 0.0 0.0 0.00 0.00 0.00 64 933.3
20260902184134 70 0.0 0.0 0.00 0.00 0.00 65 933.2
20260902183634 70 0.0 0.0 0.00 0.00 0.00 64 933.1
20260902183134 70 0.0 0.0 0.00 0.00 0.00 65 933.1
20260902182634 70 0.0 0.0 0.00 0.00 0.00 65 933.1
20260902182134 70 0.0 0.0 0.00 0.00 0.00 66 932.9
20260902181634 70 0.0 0.0 0.00 0.00 0.00 67 932.9
20260902181134 70 0.0 0.0 0.00 0.00 0.00 66 932.8
20260902180634 71 0.0 0.0 0.00 0.00 0.00 67 932.7
20260902180134 71 0.0 0.0 0.00 0.00 0.00 66 932.6
20260902175634 71 0.0 0.0 0.00 0.00 0.00 66 932.5
20260902175134 71 0.0 0.0 0.00 0.00 0.00 65 932.6
20260902174634 72 0.0 0.0 0.00 0.00 0.00 65 932.6
20260902174134 72 0.0 0.0 0.00 0.00 0.00 65 932.6
20260902173634 72 0.0 0.0 0.00 0.00 0.00 65 932.5
20260902173134 73 0.0 0.0 0.00 0.00 0.00 64 932.5
20260902172634 73 0.0 0.0 0.00 0.00 0.00 64 932.5
20260902172135 73 0.0 0.0 0.00 0.00 0.00 63 932.5
20260902171634 74 0.0 0.0 0.00 0.00 0.00 61 932.4
20260902171134 75 0.0 0.0 0.00 0.00 0.00 60 932.3
20260902170634 75 0.0 0.0 0.00 0.00 0.00 58 932.2
20260902170134 76 0.0 0.0 0.00 0.00 0.00 56 932.2
20260902165634 77 0.0 0.0 0.00 0.00 0.00 55 932.1
20260902165134 78 0.0 0.0 0.00 0.00 0.00 53 932.2
20260902164635 81 0.0 0.0 0.00 0.00 0.00 50 932.0
20260902164134 81 0.0 0.0 0.00 0.00 0.00 51 932.1
20260902163635 81 0.0 0.0 0.00 0.00 0.00 49 932.1
20260902163134 81 0.0 0.0 0.00 0.00 0.00 50 932.1
20260902162635 83 0.0 0.0 0.00 0.00 0.00 49 932.1
20260902162134 84 0.0 0.0 0.00 0.00 0.00 45 932.0
20260902161635 83 0.0 0.0 0.00 0.00 0.00 47 932.0
20260902161134 83 0.0 0.0 0.00 0.00 0.00 46 932.0
20260902160635 82 0.0 0.0 0.00 0.00 0.00 47 932.1
20260902160135 82 0.0 0.0 0.00 0.00 0.00 46 932.0
20260902155634 81 0.0 0.0 0.00 0.00 0.00 47 932.0
20260902155134 81 0.0 0.0 0.00 0.00 0.00 47 932.2
20260902154634 82 0.0 0.0 0.00 0.00 0.00 45 932.1
20260902154135 82 0.0 0.0 0.00 0.00 0.00 45 932.2
20260902153634 81 0.0 0.0 0.00 0.00 0.00 49 932.2
20260902153134 80 0.0 0.0 0.00 0.00 0.00 48 932.3
20260902152634 79 0.0 0.0 0.00 0.00 0.00 53 932.3
20260902152134 78 0.0 0.0 0.00 0.00 0.00 57 932.2
20260902151635 78 0.0 0.0 0.00 0.00 0.00 52 932.3
20260902151134 78 0.0 0.0 0.00 0.00 0.00 51 932.3
20260902150634 78 0.0 0.0 0.00 0.00 0.00 49 932.3
20260902150135 79 0.0 0.0 0.00 0.00 0.00 49 932.3
20260902145634 79 0.0 0.0 0.00 0.00 0.00 48 932.3
20260902145134 79 0.0 0.0 0.00 0.00 0.00 48 932.4
20260902144635 78 0.0 0.0 0.00 0.00 0.00 48 932.4
20260902144134 79 0.0 0.0 0.00 0.00 0.00 46 932.4
20260902143634 80 0.0 0.0 0.00 0.00 0.00 47 932.5
20260902143134 80 0.0 0.0 0.00 0.00 0.00 46 932.5
20260902142634 79 0.0 0.0 0.00 0.00 0.00 47 932.5
20260902142135 78 0.0 0.0 0.00 0.00 0.00 49 932.6
20260902141635 79 0.0 0.0 0.00 0.00 0.00 49 932.6
20260902141134 79 0.0 0.0 0.00 0.00 0.00 50 932.6
20260902140634 77 0.0 0.0 0.00 0.00 0.00 50 932.6
20260902140134 76 0.0 0.0 0.00 0.00 0.00 53 932.8
20260902135635 76 0.0 0.0 0.00 0.00 0.00 54 932.8
20260902135135 76 0.0 0.0 0.00 0.00 0.00 51 932.8
20260902134635 76 0.0 0.0 0.00 0.00 0.00 51 932.8
20260902134135 77 0.0 0.0 0.00 0.00 0.00 50 932.8
20260902133634 78 0.0 0.0 0.00 0.00 0.00 49 932.8
20260902133135 78 0.0 0.0 0.00 0.00 0.00 50 932.9
20260902132635 78 0.0 0.0 0.00 0.00 0.00 47 932.8
20260902132235 78 0.0 0.0 0.00 0.00 0.00 50 932.9
20260902132135 78 0.0 0.0 0.00 0.00 0.00 49 932.9
20260902131635 78 0.0 0.0 0.00 0.00 0.00 48 932.9
20260902131435 78 0.0 0.0 0.00 0.00 0.00 48 932.9
20260902131135 77 0.0 0.0 0.00 0.00 0.00 50 933.0
20260902130735 77 0.0 0.0 0.00 0.00 0.00 49 933.0
20260902130335 77 0.0 0.0 0.00 0.00 0.00 50 933.1
20260902130235 77 0.0 0.0 0.00 0.00 0.00 51 933.0
20260902125835 77 0.0 0.0 0.00 0.00 0.00 53 933.1
20260902125334 76 0.0 0.0 0.00 0.00 0.00 51 933.1
20260902124835 76 0.0 0.0 0.00 0.00 0.00 53 933.2
20260902124335 77 0.0 0.0 0.00 0.00 0.00 50 933.1
20260902124135 77 0.0 0.0 0.00 0.00 0.00 51 933.2
20260902123735 77 0.0 0.0 0.00 0.00 0.00 54 933.3
20260902123535 77 0.0 0.0 0.00 0.00 0.00 50 933.3
20260902123135 76 0.0 0.0 0.00 0.00 0.00 55 933.3
20260902123035 76 0.0 0.0 0.00 0.00 0.00 51 933.3